When you browse on this site, cookies collect data to enhance your experience and personalize the content and advertising you see.
Visit our Privacy Policy to learn more. By continuing to use the site, you agree to this use of cookies and data.
  • în România
  • Lista ţărilor
  • Pe 7 zile
  • Temperatura apei
  • Meteo pe hartă
  • Widget-uri
  • user-avatar
    Intrare

    Meteo pe oră la Townsville

    Astăzi, 2 Iunie, Marţi

    Timp Temperatura Precipitaţii Vânt Presiune Umiditate
    00:00 +19°C° 0 mm 0 m/s 756 mmHg 89%
    01:00 +20°C° 0 mm 1 m/s 756 mmHg 90%
    02:00 +20°C° 0 mm 1 m/s 756 mmHg 90%
    03:00 +20°C° 0 mm 1 m/s 756 mmHg 90%
    04:00 +20°C° 0 mm 1 m/s 756 mmHg 90%
    05:00 +20°C° 0 mm 1 m/s 756 mmHg 90%
    06:00 +19°C° 0 mm 2 m/s 756 mmHg 90%
    07:00 +19°C° 0 mm 2 m/s 757 mmHg 90%
    08:00 +21°C° 0 mm 2 m/s 757 mmHg 81%
    09:00 +23°C° 0 mm 2 m/s 757 mmHg 73%
    10:00 +25°C° 0 mm 3 m/s 758 mmHg 63%
    11:00 +26°C° 0 mm 2 m/s 757 mmHg 59%
    12:00 +27°C° 0 mm 2 m/s 757 mmHg 55%
    13:00 +28°C° 0 mm 2 m/s 756 mmHg 51%
    14:00 +28°C° 0 mm 2 m/s 756 mmHg 52%
    15:00 +28°C° 0 mm 2 m/s 756 mmHg 52%
    16:00 +27°C° 0 mm 2 m/s 756 mmHg 52%
    17:00 +26°C° 0 mm 1 m/s 756 mmHg 58%
    18:00 +24°C° 0 mm 1 m/s 756 mmHg 63%
    19:00 +22°C° 0 mm 1 m/s 757 mmHg 69%
    20:00 +22°C° 0 mm 1 m/s 757 mmHg 69%
    21:00 +20°C° 0 mm 2 m/s 757 mmHg 69%
    22:00 +20°C° 0 mm 3 m/s 758 mmHg 69%
    23:00 +19°C° 0.1 mm 3 m/s 758 mmHg 70%

    Mâine, 3 Iunie, Miercuri

    Timp Temperatura Precipitaţii Vânt Presiune Umiditate
    00:00 +19°C° 0.1 mm 3 m/s 757 mmHg 72%
    01:00 +19°C° 0.1 mm 4 m/s 757 mmHg 73%
    02:00 +18°C° 0 mm 4 m/s 757 mmHg 73%
    03:00 +18°C° 0 mm 3 m/s 757 mmHg 73%
    04:00 +17°C° 0 mm 3 m/s 757 mmHg 73%
    05:00 +17°C° 0 mm 3 m/s 758 mmHg 73%
    06:00 +16°C° 0 mm 3 m/s 758 mmHg 72%
    07:00 +16°C° 0 mm 3 m/s 759 mmHg 72%
    08:00 +18°C° 0 mm 3 m/s 759 mmHg 65%
    09:00 +20°C° 0 mm 3 m/s 759 mmHg 57%
    10:00 +21°C° 0 mm 3 m/s 759 mmHg 50%
    11:00 +22°C° 0 mm 3 m/s 759 mmHg 47%
    12:00 +24°C° 0 mm 3 m/s 758 mmHg 44%
    13:00 +25°C° 0 mm 3 m/s 758 mmHg 42%
    14:00 +25°C° 0 mm 3 m/s 757 mmHg 42%
    15:00 +25°C° 0 mm 3 m/s 757 mmHg 43%
    16:00 +25°C° 0 mm 3 m/s 757 mmHg 43%
    17:00 +22°C° 0 mm 3 m/s 757 mmHg 47%
    18:00 +20°C° 0 mm 3 m/s 758 mmHg 51%
    19:00 +18°C° 0 mm 3 m/s 758 mmHg 55%
    20:00 +18°C° 0 mm 3 m/s 759 mmHg 55%
    21:00 +17°C° 0 mm 3 m/s 759 mmHg 54%
    22:00 +16°C° 0 mm 3 m/s 759 mmHg 54%
    23:00 +16°C° 0 mm 3 m/s 759 mmHg 54%

    Poimâine, 4 Iunie, Joi

    Timp Temperatura Precipitaţii Vânt Presiune Umiditate
    00:00 +14°C° 0 mm 3 m/s 759 mmHg 54%
    01:00 +14°C° 0 mm 3 m/s 758 mmHg 54%
    02:00 +13°C° 0 mm 3 m/s 758 mmHg 54%
    03:00 +13°C° 0 mm 3 m/s 758 mmHg 53%
    04:00 +12°C° 0 mm 3 m/s 758 mmHg 53%
    05:00 +12°C° 0 mm 3 m/s 758 mmHg 54%
    06:00 +12°C° 0 mm 3 m/s 759 mmHg 55%
    07:00 +11°C° 0 mm 3 m/s 759 mmHg 56%
    08:00 +14°C° 0 mm 3 m/s 759 mmHg 52%
    09:00 +17°C° 0 mm 3 m/s 759 mmHg 48%
    10:00 +19°C° 0 mm 3 m/s 759 mmHg 44%
    11:00 +20°C° 0 mm 3 m/s 759 mmHg 43%
    12:00 +21°C° 0 mm 4 m/s 759 mmHg 42%
    13:00 +23°C° 0 mm 4 m/s 758 mmHg 41%
    14:00 +23°C° 0 mm 4 m/s 758 mmHg 45%
    15:00 +23°C° 0 mm 5 m/s 757 mmHg 49%
    16:00 +23°C° 0 mm 5 m/s 757 mmHg 54%
    17:00 +21°C° 0 mm 5 m/s 757 mmHg 61%
    18:00 +20°C° 0 mm 5 m/s 758 mmHg 68%
    19:00 +17°C° 0 mm 5 m/s 758 mmHg 75%
    20:00 +18°C° 0 mm 4 m/s 759 mmHg 76%
    21:00 +18°C° 0 mm 4 m/s 759 mmHg 78%
    22:00 +18°C° 0 mm 4 m/s 759 mmHg 79%
    23:00 +18°C° 0 mm 4 m/s 759 mmHg 81%

    5 Iunie, Vineri

    Timp Temperatura Precipitaţii Vânt Presiune Umiditate
    00:00 +18°C° 0 mm 4 m/s 758 mmHg 82%
    01:00 +18°C° 0 mm 4 m/s 758 mmHg 83%
    02:00 +18°C° 0.1 mm 4 m/s 758 mmHg 84%
    03:00 +18°C° 0.1 mm 4 m/s 757 mmHg 85%
    04:00 +18°C° 0.1 mm 4 m/s 757 mmHg 86%
    05:00 +18°C° 0.1 mm 4 m/s 757 mmHg 88%
    06:00 +17°C° 0.1 mm 4 m/s 758 mmHg 90%
    07:00 +17°C° 0.1 mm 4 m/s 758 mmHg 92%
    08:00 +18°C° 0.1 mm 4 m/s 758 mmHg 88%
    09:00 +19°C° 0.1 mm 4 m/s 758 mmHg 84%
    10:00 +20°C° 0.1 mm 4 m/s 758 mmHg 81%
    11:00 +22°C° 0.1 mm 5 m/s 758 mmHg 76%
    12:00 +23°C° 0.1 mm 5 m/s 757 mmHg 72%
    13:00 +24°C° 0.1 mm 6 m/s 757 mmHg 68%
    14:00 +24°C° 0.2 mm 6 m/s 757 mmHg 69%
    15:00 +24°C° 0.2 mm 6 m/s 756 mmHg 70%
    16:00 +24°C° 0.2 mm 7 m/s 756 mmHg 71%
    17:00 +22°C° 0 mm 6 m/s 756 mmHg 75%
    18:00 +21°C° 0 mm 6 m/s 757 mmHg 79%
    19:00 +20°C° 0 mm 6 m/s 757 mmHg 84%
    20:00 +20°C° 0 mm 5 m/s 757 mmHg 85%
    21:00 +19°C° 0 mm 5 m/s 758 mmHg 86%
    22:00 +19°C° 0 mm 5 m/s 758 mmHg 87%
    23:00 +19°C° 0.1 mm 5 m/s 758 mmHg 86%

    6 Iunie, Sâmbătă

    Timp Temperatura Precipitaţii Vânt Presiune Umiditate
    00:00 +19°C° 0.1 mm 4 m/s 757 mmHg 85%
    01:00 +19°C° 0.1 mm 4 m/s 757 mmHg 84%
    02:00 +18°C° 0 mm 4 m/s 757 mmHg 86%
    03:00 +18°C° 0 mm 4 m/s 756 mmHg 88%
    04:00 +17°C° 0 mm 4 m/s 756 mmHg 91%
    05:00 +17°C° 0 mm 4 m/s 756 mmHg 91%
    06:00 +17°C° 0 mm 4 m/s 756 mmHg 92%
    07:00 +15°C° 0 mm 4 m/s 757 mmHg 92%
    08:00 +18°C° 0 mm 4 m/s 757 mmHg 85%
    09:00 +20°C° 0 mm 4 m/s 757 mmHg 77%
    10:00 +22°C° 0 mm 4 m/s 757 mmHg 69%
    11:00 +23°C° 0 mm 4 m/s 756 mmHg 67%
    12:00 +25°C° 0 mm 4 m/s 756 mmHg 65%
    13:00 +26°C° 0 mm 5 m/s 755 mmHg 62%
    14:00 +25°C° 0.1 mm 5 m/s 755 mmHg 64%
    15:00 +25°C° 0.1 mm 5 m/s 755 mmHg 66%
    16:00 +25°C° 0.1 mm 5 m/s 755 mmHg 67%
    17:00 +23°C° 0 mm 5 m/s 755 mmHg 69%
    18:00 +22°C° 0 mm 5 m/s 755 mmHg 72%
    19:00 +21°C° 0 mm 4 m/s 756 mmHg 74%
    20:00 +21°C° 0 mm 4 m/s 756 mmHg 76%
    21:00 +20°C° 0 mm 4 m/s 756 mmHg 79%
    22:00 +20°C° 0 mm 4 m/s 756 mmHg 81%
    23:00 +19°C° 0 mm 4 m/s 756 mmHg 84%

    7 Iunie, Duminică

    Timp Temperatura Precipitaţii Vânt Presiune Umiditate
    00:00 +18°C° 0 mm 4 m/s 756 mmHg 88%
    01:00 +18°C° 0 mm 4 m/s 755 mmHg 91%
    02:00 +18°C° 0 mm 4 m/s 755 mmHg 92%
    03:00 +18°C° 0 mm 4 m/s 755 mmHg 93%
    04:00 +18°C° 0 mm 4 m/s 755 mmHg 94%
    05:00 +18°C° 0 mm 4 m/s 755 mmHg 93%
    06:00 +18°C° 0 mm 3 m/s 755 mmHg 93%
    07:00 +18°C° 0 mm 3 m/s 756 mmHg 92%
    08:00 +19°C° 0 mm 4 m/s 756 mmHg 84%
    09:00 +21°C° 0 mm 4 m/s 756 mmHg 76%
    10:00 +23°C° 0 mm 4 m/s 756 mmHg 69%
    11:00 +23°C° 0 mm 4 m/s 756 mmHg 65%
    12:00 +25°C° 0 mm 4 m/s 755 mmHg 61%
    13:00 +26°C° 0 mm 5 m/s 755 mmHg 57%
    14:00 +26°C° 0 mm 5 m/s 755 mmHg 58%
    15:00 +26°C° 0 mm 5 m/s 754 mmHg 60%
    16:00 +26°C° 0 mm 5 m/s 754 mmHg 62%
    17:00 +23°C° 0 mm 5 m/s 755 mmHg 68%
    18:00 +22°C° 0 mm 5 m/s 755 mmHg 74%
    19:00 +21°C° 0 mm 5 m/s 756 mmHg 81%
    20:00 +20°C° 0.1 mm 5 m/s 756 mmHg 82%
    21:00 +20°C° 0.1 mm 5 m/s 756 mmHg 83%
    22:00 +20°C° 0.1 mm 5 m/s 757 mmHg 84%
    23:00 +19°C° 0 mm 5 m/s 756 mmHg 83%
    Arată mai mult